Theta_e
346 349 362 360 359 357 356 355 352 351 352 352 352 349 351 352 354 353 350 349 349 351 351 348 347 346 346 345 345 346 347 347 346 347 345 344 343 344 345 343 344 338 341
348 354 362 361 360 359 357 355 353 351 351 350 351 350 349 352 353 352 350 348 348 349 351 348 346 346 345 343 344 345 344 343 345 345 344 343 345 343 344 340 341 339 344
354 356 355 354 353 354 354 355 353 352 353 352 349 349 349 349 353 352 352 349 348 348 348 350 346 345 344 343 343 343 342 342 343 343 341 336 336 339 338 341 343 344 341
351 352 352 355 355 354 353 352 352 352 351 351 351 350 350 349 349 351 351 350 350 348 349 349 349 346 344 343 342 341 341 342 345 347 337 336 336 338 337 342 337 339 342
334 348 350 355 355 355 353 352 351 351 350 350 351 351 351 351 350 349 350 352 351 351 349 350 349 350 346 344 343 340 341 343 344 347 334 332 333 338 338 342 340 338 340
324 336 340 343 345 348 350 352 352 352 351 350 350 350 349 350 350 351 351 350 351 351 351 350 350 349 349 347 344 342 341 343 347 335 331 333 333 339 340 340 339 338 339
317 321 326 335 337 338 340 341 342 346 345 343 347 349 349 349 349 349 350 350 351 351 351 351 350 350 349 349 347 344 342 342 334 330 329 331 334 342 342 340 340 337 335
314 316 317 325 330 332 333 334 335 336 337 336 337 341 346 346 347 347 348 348 350 349 349 349 350 350 350 349 349 348 345 345 337 330 330 331 336 344 342 341 340 338 336
312 312 312 314 317 322 328 329 329 330 330 330 331 333 335 339 343 345 343 344 347 348 349 349 349 350 350 350 349 350 350 347 330 330 331 329 338 344 343 342 341 339 338
309 309 308 309 310 311 311 323 324 325 325 324 324 325 326 328 333 334 336 338 339 341 345 346 348 349 349 350 350 351 350 348 334 328 330 330 339 345 344 344 343 340 339
307 307 307 307 307 308 308 312 315 318 318 317 316 319 317 316 319 322 326 330 333 337 338 340 341 345 347 348 348 348 347 340 337 332 329 336 340 344 345 344 343 342 340
302 304 305 305 306 307 308 305 307 308 307 308 308 308 309 310 312 317 319 324 326 329 330 334 337 339 339 340 340 344 341 341 338 337 332 338 342 344 346 344 343 343 341
300 301 302 301 302 302 303 302 303 304 304 305 305 306 307 307 307 311 311 312 315 321 320 324 326 331 332 334 337 339 339 339 339 338 338 339 341 344 346 345 343 343 342
298 300 301 301 300 300 301 300 300 302 302 302 303 305 303 302 303 306 307 309 310 312 312 314 318 321 325 330 332 335 338 338 338 337 338 341 342 343 346 346 345 343 342
296 299 300 301 300 300 299 299 299 300 300 300 301 302 303 300 301 303 303 305 306 308 308 309 312 314 318 326 328 330 333 337 337 338 337 341 343 344 345 346 346 345 343
296 297 298 300 301 300 299 298 298 299 300 299 299 300 302 300 299 301 301 301 302 305 306 308 309 310 315 320 323 328 331 333 337 336 336 336 341 344 345 344 346 346 344
294 296 296 299 301 299 298 299 299 299 301 299 299 299 300 300 299 300 299 299 300 303 305 305 305 309 309 314 315 321 326 332 334 334 334 335 335 340 343 345 347 346 345
291 292 294 297 296 297 297 298 298 298 298 298 298 298 300 301 300 299 298 298 300 302 302 301 302 303 306 309 309 313 319 326 330 332 335 335 334 335 338 341 345 347 346
292 291 292 293 294 296 296 298 298 298 298 298 298 298 299 300 301 299 298 298 299 299 299 299 300 301 302 303 306 311 315 320 325 329 331 333 334 334 335 338 340 342 345
293 293 293 294 294 295 296 296 296 296 297 297 297 298 299 300 300 299 299 298 299 298 298 298 298 300 300 301 306 307 310 315 319 323 327 330 333 333 333 333 336 338 342
294 293 293 293 294 294 294 294 293 293 294 295 297 298 299 299 300 298 298 298 298 297 297 297 298 298 297 300 303 305 309 314 319 322 325 328 329 331 333 334 335 336 337
293 293 293 293 293 293 294 294 294 293 294 295 297 297 298 298 298 298 297 298 298 297 296 296 296 296 297 299 301 301 301 306 315 319 324 327 328 330 331 333 334 334 334
291 292 293 293 292 292 292 293 293 293 293 293 294 295 296 297 298 298 298 298 297 296 296 296 295 296 294 297 298 299 298 299 306 316 322 324 327 328 329 330 331 332 333
291 292 293 293 291 292 293 291 289 289 289 292 291 294 295 296 297 297 298 297 297 297 295 296 298 296 296 295 296 301 301 304 300 304 313 315 316 318 326 327 329 330 330
290 290 292 293 292 292 291 290 289 289 290 291 291 291 293 295 296 296 296 296 296 297 296 296 296 295 297 296 295 295 297 299 303 302 301 310 312 311 312 315 326 328 328
290 290 291 292 292 292 291 291 289 288 289 289 290 290 291 292 293 294 295 296 296 296 296 296 296 295 296 296 296 297 297 296 298 302 304 308 310 308 310 311 314 320 327
Wind_Speed
4 4 8 7 6 4 3 3 3 4 4 4 4 4 4 2 1 5 4 3 4 3 6 6 6 6 5 6 5 5 5 5 5 8 8 7 8 7 8 8 8 5 9
3 6 9 7 8 6 3 2 2 2 2 2 2 1 1 2 1 4 3 3 2 2 4 4 4 4 4 3 4 5 4 3 3 6 6 5 3 6 7 6 4 6 9
6 3 2 1 0 1 1 1 1 1 1 1 2 2 2 4 4 4 4 4 4 4 2 4 4 4 3 3 4 4 3 2 2 4 3 1 2 6 4 5 7 8 9
8 5 5 6 6 7 6 7 6 5 4 4 3 3 3 4 6 5 5 5 5 5 5 4 4 4 5 5 5 5 4 4 5 9 3 1 2 4 4 5 5 5 7
16 17 15 17 14 11 11 10 9 8 8 7 7 8 7 6 7 8 8 7 8 7 7 7 6 7 7 6 6 6 6 5 5 7 4 3 2 3 3 4 5 5 6
12 14 19 24 24 23 23 22 19 17 14 12 10 9 9 9 10 9 10 10 10 10 10 9 10 10 10 9 8 8 7 5 6 5 4 5 5 5 6 7 4 4 6
13 13 15 24 23 22 23 22 21 22 23 22 21 19 15 13 13 12 12 12 13 12 11 12 12 12 12 12 11 10 9 8 5 5 5 5 4 8 8 7 6 6 5
13 12 13 20 23 23 22 23 23 22 20 21 22 19 19 18 18 17 16 15 14 13 13 13 14 15 14 14 14 13 11 9 6 6 6 5 9 11 9 9 9 8 7
13 12 11 10 15 20 23 23 23 24 21 21 21 21 20 17 16 16 17 17 19 16 15 15 16 17 17 17 16 15 13 10 6 4 6 4 11 13 12 11 12 11 10
12 12 11 11 8 11 8 23 21 23 21 22 22 21 20 18 18 18 17 16 15 16 16 18 18 19 19 19 18 16 15 13 6 5 5 4 14 16 15 14 14 13 12
11 11 11 10 9 7 8 11 14 19 19 18 17 19 13 8 9 12 16 19 19 17 16 15 15 17 17 18 19 18 17 4 7 5 4 13 17 18 17 16 15 15 14
9 9 8 8 8 7 7 6 6 6 4 6 8 8 7 6 8 11 14 18 18 19 19 18 17 15 10 6 5 15 8 7 6 7 6 16 19 21 20 17 16 16 15
4 5 7 6 6 6 6 4 3 3 3 4 6 6 5 5 5 6 5 6 7 14 7 10 10 6 8 5 5 7 9 9 6 6 9 18 21 22 22 20 19 18 17
6 6 7 7 6 6 3 3 3 4 4 4 4 6 4 3 4 4 4 5 6 6 9 7 6 9 9 7 8 7 8 8 6 5 9 19 22 24 24 22 21 21 20
8 8 8 7 7 6 5 4 4 4 3 2 3 4 3 4 4 4 4 4 4 5 6 8 8 8 8 8 7 8 9 8 9 5 5 19 22 22 25 24 23 23 22
8 9 9 10 7 7 6 6 4 3 4 4 4 4 4 2 3 3 4 4 4 4 4 5 8 8 8 8 9 8 8 7 8 8 8 8 21 24 26 26 25 25 24
6 8 8 8 8 8 7 6 5 5 4 4 4 5 5 3 3 3 3 4 3 3 5 4 6 6 8 7 8 8 8 8 7 7 7 7 9 23 26 26 26 27 26
9 9 8 7 7 7 7 5 4 5 5 5 4 4 5 5 5 4 3 4 4 3 3 3 4 6 7 7 8 8 8 8 8 8 9 8 8 8 16 25 27 28 28
11 10 11 10 9 8 7 5 6 7 5 5 5 5 6 6 6 4 4 5 5 4 4 4 3 3 6 7 8 9 7 8 9 8 10 14 12 11 8 16 26 27 26
13 13 12 11 12 9 6 4 4 4 5 5 5 6 6 6 7 5 5 6 4 3 4 3 3 4 4 7 9 10 10 9 9 9 10 11 12 12 11 8 8 15 28
17 16 14 13 15 7 4 5 4 4 5 5 4 7 7 7 8 6 6 6 5 4 6 6 3 4 4 3 7 6 7 7 11 10 10 10 13 12 11 11 7 10 14
18 18 17 17 16 12 6 4 4 4 5 5 5 7 6 7 8 6 6 6 7 5 7 6 5 2 3 2 4 9 7 5 6 9 9 10 11 8 9 10 11 11 11
18 18 17 16 15 14 11 5 4 4 3 3 5 5 7 6 7 6 8 7 7 5 7 7 5 6 4 3 4 4 6 4 6 3 6 6 9 7 8 9 10 10 11
18 17 16 15 14 13 13 10 7 5 7 8 5 7 7 8 9 8 10 9 9 6 7 8 7 6 4 5 2 6 10 8 4 6 2 3 3 2 8 6 7 8 9
17 16 16 16 15 13 13 10 9 9 7 8 6 9 9 9 9 10 10 11 9 7 7 8 7 6 6 6 5 3 5 6 9 9 10 5 4 1 1 2 5 7 8
18 17 16 16 15 15 13 14 12 13 13 9 10 9 9 7 7 10 11 10 9 8 8 8 8 7 8 7 6 7 7 5 5 5 6 7 5 3 1 1 1 2 6
Wind_Direction
221 179 169 162 151 137 115 83 80 81 76 74 84 78 86 8 131 123 117 115 107 101 128 117 113 113 115 116 120 108 93 84 78 76 75 77 80 70 76 70 84 74 81
127 153 172 184 163 146 131 134 117 104 97 88 86 55 41 8 132 152 144 142 139 142 144 125 125 124 126 135 139 142 133 106 61 100 85 52 27 85 86 85 89 102 91
58 64 132 213 352 73 162 184 192 15 272 7 6 334 335 327 318 224 193 191 188 190 183 165 163 164 164 173 179 178 177 191 174 124 112 97 2 113 89 111 101 85 92
30 43 37 7 2 4 0 350 333 328 325 314 315 304 307 312 313 299 280 260 230 214 210 215 210 201 204 200 205 207 206 234 237 209 147 226 273 142 144 123 122 89 95
43 43 37 35 24 18 11 5 1 340 337 333 333 320 311 300 294 296 297 292 267 246 225 219 228 226 226 223 224 221 214 234 258 169 166 207 244 201 175 111 135 126 110
41 51 47 48 46 44 44 41 36 23 13 359 344 332 319 310 305 292 289 287 282 262 252 235 226 233 232 233 232 230 219 215 169 152 179 210 208 230 192 160 155 143 132
55 42 48 51 51 45 44 45 44 37 40 33 30 24 9 350 328 319 308 292 286 279 259 248 240 234 237 235 238 235 224 209 171 191 196 212 222 209 199 176 194 179 170
58 49 46 46 46 47 46 42 42 41 42 38 31 30 26 19 18 10 7 342 309 291 283 269 261 251 239 237 236 237 231 208 190 201 203 208 225 228 206 200 197 193 192
50 49 46 40 49 34 46 41 37 40 36 37 33 32 32 25 20 25 22 10 358 341 313 288 271 263 254 244 235 236 232 214 187 200 203 207 223 224 216 204 202 202 193
47 49 42 43 22 44 19 39 38 38 29 30 27 26 27 22 19 19 15 8 10 1 345 347 316 277 264 252 242 232 229 221 197 199 209 207 219 225 220 207 210 206 202
43 37 38 40 25 48 32 37 33 33 30 26 22 19 18 9 5 13 7 6 5 358 352 343 335 340 300 270 256 244 238 203 195 200 203 222 223 225 224 216 213 211 210
23 17 17 26 22 26 36 26 29 26 19 19 14 10 10 3 7 11 6 7 4 360 353 350 342 335 334 323 278 248 237 216 202 206 207 220 219 224 227 224 214 215 213
354 10 2 6 13 20 13 13 15 12 15 12 13 10 360 4 358 2 3 356 353 356 352 345 338 336 330 315 298 284 243 223 214 208 217 215 220 225 228 224 218 215 212
1 350 346 355 4 6 358 13 2 15 11 11 2 6 9 2 357 358 357 345 349 346 341 339 331 327 322 317 310 293 279 248 218 207 208 215 221 226 228 227 220 215 214
1 340 339 336 348 343 359 355 356 357 2 343 358 353 16 8 351 340 347 339 335 338 340 334 329 326 322 313 304 297 298 270 245 214 223 217 219 222 228 228 225 220 216
336 343 333 339 339 340 337 327 316 322 333 350 349 342 350 352 327 2 342 331 328 333 325 323 322 319 314 317 312 301 278 278 256 235 228 223 223 219 225 227 229 220 218
331 331 338 326 325 322 300 291 299 300 316 314 306 317 321 318 305 322 293 306 304 314 315 321 322 316 315 313 308 305 294 279 266 251 230 224 231 232 224 223 223 222 217
331 325 307 316 315 309 305 298 308 305 307 293 297 302 293 285 280 281 305 310 302 305 305 315 307 317 309 311 307 299 289 277 267 258 253 231 222 228 233 222 216 222 217
329 326 324 322 321 320 316 300 295 295 296 291 292 277 281 293 285 271 276 273 280 291 297 304 310 278 309 307 299 295 284 277 267 257 248 251 227 223 222 226 219 217 217
334 324 319 320 313 321 307 290 277 268 267 259 258 259 265 257 265 260 251 256 269 277 280 267 259 280 263 290 295 291 276 260 255 246 245 246 242 220 214 214 223 221 216
341 334 330 321 311 303 289 305 287 273 290 285 268 287 299 295 292 285 276 273 259 240 250 258 257 274 295 286 300 288 277 264 254 246 244 236 239 230 214 221 208 228 217
332 327 329 324 316 305 293 257 247 258 266 257 278 288 266 263 265 266 253 261 260 269 267 252 228 248 252 276 298 308 291 300 247 233 226 232 228 224 219 207 208 213 213
324 324 317 316 309 308 300 279 259 233 259 279 277 276 276 277 279 264 263 253 256 240 253 252 225 205 248 253 234 242 302 273 339 235 225 229 231 218 216 207 205 207 201
315 315 312 311 301 310 314 313 307 291 295 289 264 272 269 261 268 266 265 258 249 236 231 249 243 217 194 250 260 229 242 271 301 315 299 282 225 286 218 190 193 191 204
312 313 313 313 307 305 312 304 294 291 274 275 275 270 263 260 254 263 261 260 252 246 234 232 240 216 217 236 227 243 242 259 255 257 284 268 260 186 352 285 203 198 196
317 313 310 308 305 306 303 294 283 282 288 284 285 278 272 259 249 246 254 255 250 242 233 236 231 224 229 227 231 234 242 243 267 282 261 289 238 234 155 294 287 240 193